Radiation Dose at Monitoring Post of Fukushima Daini Nuclear Power Station
Date,Time,MP-1(microSv/h),MP-2(microSv/h),MP-3(microSv/h),MP-4(microSv/h),MP-5(microSv/h),MP-6(microSv/h),MP-7(microSv/h),Wind Direction,Wind Velocity(m/s),Rain
2021/06/29,00:00,0.165,0.154,0.247,0.240,0.237,0.131,0.082,north-northeast,3.3,No
2021/06/29,00:10,0.167,0.154,0.247,0.241,0.234,0.130,0.082,north,4.1,No
2021/06/29,00:20,0.167,0.154,0.247,0.238,0.236,0.130,0.081,north,4.6,No
2021/06/29,00:30,0.166,0.154,0.246,0.241,0.236,0.131,0.081,north,4.6,No
2021/06/29,00:40,0.168,0.154,0.249,0.240,0.233,0.131,0.082,north,4.1,Yes
2021/06/29,00:50,0.167,0.156,0.247,0.240,0.236,0.132,0.083,north-northeast,3.8,Yes
2021/06/29,01:00,0.167,0.155,0.247,0.239,0.235,0.131,0.083,north-northeast,5.2,Yes
2021/06/29,01:10,0.167,0.155,0.245,0.237,0.235,0.131,0.083,north-northeast,3.9,Yes
2021/06/29,01:20,0.167,0.156,0.245,0.239,0.236,0.131,0.083,north-northeast,4.5,Yes
2021/06/29,01:30,0.167,0.154,0.247,0.236,0.232,0.131,0.081,north-northeast,4.8,No
2021/06/29,01:40,0.166,0.154,0.243,0.238,0.235,0.131,0.082,north-northeast,4.4,No
2021/06/29,01:50,0.167,0.154,0.246,0.238,0.232,0.131,0.082,north-northeast,4.0,Yes
2021/06/29,02:00,0.167,0.154,0.244,0.235,0.233,0.130,0.081,northeast,3.8,Yes
2021/06/29,02:10,0.167,0.154,0.245,0.238,0.234,0.131,0.081,north-northeast,3.3,No
2021/06/29,02:20,0.167,0.153,0.244,0.235,0.232,0.130,0.082,north-northeast,3.2,No
2021/06/29,02:30,0.166,0.154,0.243,0.237,0.235,0.130,0.082,north-northeast,3.7,No
2021/06/29,02:40,0.167,0.152,0.246,0.237,0.233,0.130,0.081,north-northeast,3.3,Yes
2021/06/29,02:50,0.166,0.154,0.243,0.236,0.233,0.129,0.082,north-northeast,3.3,Yes
2021/06/29,03:00,0.166,0.154,0.246,0.240,0.235,0.132,0.082,north-northeast,3.9,Yes
2021/06/29,03:10,0.169,0.155,0.247,0.238,0.233,0.132,0.084,north,4.9,Yes
2021/06/29,03:20,0.168,0.156,0.247,0.240,0.236,0.132,0.084,north,5.4,Yes
2021/06/29,03:30,0.169,0.156,0.246,0.239,0.236,0.135,0.085,north,5.5,Yes
2021/06/29,03:40,0.168,0.157,0.246,0.239,0.235,0.133,0.085,north,5.9,Yes
2021/06/29,03:50,0.169,0.156,0.248,0.238,0.236,0.134,0.084,north,5.8,Yes
2021/06/29,04:00,0.169,0.157,0.245,0.238,0.234,0.133,0.084,north,5.0,Yes
2021/06/29,04:10,0.168,0.155,0.247,0.239,0.236,0.134,0.084,north,5.8,Yes
2021/06/29,04:20,0.169,0.156,0.244,0.237,0.234,0.133,0.085,north-northeast,6.2,Yes
2021/06/29,04:30,0.168,0.156,0.247,0.239,0.236,0.132,0.084,north-northeast,6.4,Yes
2021/06/29,04:40,0.168,0.156,0.245,0.237,0.234,0.132,0.085,north,5.5,Yes
2021/06/29,04:50,0.168,0.156,0.244,0.239,0.233,0.132,0.084,north,5.8,Yes
2021/06/29,05:00,0.168,0.157,0.247,0.237,0.236,0.133,0.084,north,6.4,Yes
2021/06/29,05:10,0.169,0.156,0.244,0.238,0.233,0.133,0.085,north-northeast,6.7,Yes
2021/06/29,05:20,0.168,0.155,0.245,0.238,0.235,0.133,0.085,north,6.0,Yes
2021/06/29,05:30,0.169,0.156,0.244,0.236,0.233,0.133,0.085,north,6.7,Yes
2021/06/29,05:40,0.168,0.156,0.244,0.238,0.235,0.133,0.085,north,6.4,Yes
2021/06/29,05:50,0.168,0.156,0.243,0.235,0.234,0.134,0.084,north,5.2,Yes
2021/06/29,06:00,0.168,0.156,0.244,0.236,0.233,0.134,0.085,north,5.6,Yes
2021/06/29,06:10,0.166,0.157,0.244,0.235,0.235,0.132,0.086,north,5.5,Yes
2021/06/29,06:20,0.168,0.156,0.244,0.236,0.232,0.134,0.086,north,5.9,Yes
2021/06/29,06:30,0.166,0.156,0.243,0.236,0.236,0.133,0.086,north,6.0,Yes
2021/06/29,06:40,0.168,0.156,0.242,0.235,0.235,0.132,0.086,north-northeast,7.2,Yes
2021/06/29,06:50,0.167,0.157,0.242,0.237,0.235,0.134,0.086,north,4.3,Yes
2021/06/29,07:00,0.167,0.156,0.242,0.233,0.235,0.132,0.086,north-northeast,7.1,Yes
2021/06/29,07:10,0.167,0.157,0.244,0.236,0.233,0.133,0.085,north,7.0,Yes
2021/06/29,07:20,0.167,0.156,0.241,0.233,0.236,0.133,0.087,north,7.3,Yes
2021/06/29,07:30,0.167,0.154,0.243,0.235,0.232,0.133,0.086,north,7.9,Yes
2021/06/29,07:40,0.164,0.156,0.241,0.234,0.235,0.134,0.086,north,8.4,Yes
2021/06/29,07:50,0.167,0.154,0.242,0.232,0.233,0.133,0.086,north,7.5,Yes
2021/06/29,08:00,0.166,0.157,0.240,0.235,0.233,0.133,0.085,north,6.6,Yes
2021/06/29,08:10,0.166,0.154,0.243,0.232,0.234,0.132,0.086,north,6.9,Yes
2021/06/29,08:20,0.165,0.155,0.239,0.233,0.232,0.131,0.085,northwest,3.8,Yes
2021/06/29,08:30,0.166,0.154,0.238,0.231,0.235,0.132,0.086,north,9.0,Yes
2021/06/29,08:40,0.165,0.155,0.239,0.234,0.232,0.132,0.086,north-northwest,6.7,Yes
2021/06/29,08:50,0.166,0.154,0.240,0.231,0.235,0.132,0.086,north-northwest,7.9,Yes
2021/06/29,09:00,0.164,0.154,0.239,0.231,0.232,0.132,0.086,north-northwest,7.6,Yes
2021/06/29,09:10,0.163,0.153,0.238,0.231,0.234,0.130,0.085,north-northwest,9.5,Yes
2021/06/29,09:20,0.165,0.154,0.237,0.231,0.232,0.130,0.085,north-northwest,7.3,Yes
2021/06/29,09:30,0.163,0.153,0.238,0.231,0.231,0.130,0.084,north-northwest,7.3,Yes
2021/06/29,09:40,0.165,0.154,0.238,0.230,0.231,0.129,0.085,north-northwest,8.4,Yes
2021/06/29,09:50,0.162,0.152,0.235,0.229,0.230,0.128,0.084,north-northwest,9.5,Yes
2021/06/29,10:00,0.163,0.152,0.236,0.228,0.233,0.128,0.084,north-northwest,8.6,Yes
2021/06/29,10:10,0.162,0.151,0.234,0.229,0.229,0.128,0.083,-,CALM,Yes
2021/06/29,10:20,0.161,0.151,0.234,0.224,0.229,0.126,0.082,-,CALM,Yes
2021/06/29,10:30,0.161,0.150,0.229,0.226,0.230,0.127,0.083,-,CALM,Yes
2021/06/29,10:40,0.160,0.150,0.232,0.224,0.229,0.126,0.084,-,CALM,Yes
2021/06/29,10:50,0.160,0.149,0.229,0.224,0.229,0.126,0.084,north-northwest,7.6,Yes
2021/06/29,11:00,0.158,0.149,0.231,0.223,0.228,0.125,0.082,north-northwest,9.8,Yes
2021/06/29,11:10,0.157,0.149,0.227,0.220,0.228,0.125,0.083,north-northwest,6.0,Yes
2021/06/29,11:20,0.156,0.148,0.228,0.223,0.228,0.126,0.083,northwest,9.6,Yes
2021/06/29,11:30,0.157,0.150,0.227,0.222,0.230,0.125,0.083,north-northwest,10.9,Yes
2021/06/29,11:40,0.154,0.149,0.228,0.222,0.227,0.125,0.083,north-northwest,9.5,Yes
2021/06/29,11:50,0.156,0.150,0.228,0.222,0.229,0.126,0.083,north-northwest,8.4,Yes
2021/06/29,12:00,0.156,0.150,0.230,0.225,0.230,0.124,0.083,north-northwest,9.0,Yes
2021/06/29,12:10,0.156,0.149,0.231,0.226,0.228,0.126,0.082,north-northwest,9.0,Yes
2021/06/29,12:20,0.157,0.150,0.232,0.225,0.231,0.124,0.082,north,9.3,Yes
2021/06/29,12:30,0.156,0.148,0.233,0.227,0.228,0.124,0.082,north,7.7,Yes
2021/06/29,12:40,0.157,0.149,0.231,0.224,0.229,0.125,0.082,north,8.1,Yes
2021/06/29,12:50,0.156,0.148,0.234,0.226,0.228,0.124,0.081,north-northwest,7.7,Yes
2021/06/29,13:00,0.157,0.149,0.232,0.224,0.227,0.125,0.081,north,7.9,No
2021/06/29,13:10,0.158,0.147,0.232,0.223,0.230,0.124,0.080,north,5.6,No
2021/06/29,13:20,0.156,0.148,0.231,0.226,0.228,0.124,0.080,north,6.5,No
2021/06/29,13:30,0.158,0.147,0.230,0.223,0.226,0.123,0.079,north,5.8,No
2021/06/29,13:40,0.157,0.146,0.231,0.224,0.229,0.123,0.079,north,7.6,No
2021/06/29,13:50,0.156,0.147,0.231,0.225,0.227,0.123,0.079,north,6.1,No
2021/06/29,14:00,0.157,0.146,0.231,0.221,0.228,0.123,0.079,north,5.5,Yes
2021/06/29,14:10,0.156,0.147,0.230,0.225,0.228,0.123,0.079,north,6.4,No
2021/06/29,14:20,0.157,0.146,0.230,0.225,0.225,0.123,0.079,north,6.4,No
2021/06/29,14:30,0.157,0.147,0.232,0.222,0.228,0.123,0.078,north,6.6,No
2021/06/29,14:40,0.156,0.147,0.231,0.225,0.228,0.122,0.078,north,7.0,No
2021/06/29,14:50,0.157,0.146,0.230,0.224,0.227,0.123,0.078,north,7.3,No
2021/06/29,15:00,0.157,0.145,0.232,0.222,0.226,0.122,0.078,north,8.1,No
2021/06/29,15:10,0.156,0.147,0.230,0.225,0.229,0.123,0.078,north,10.4,No
2021/06/29,15:20,0.158,0.145,0.230,0.224,0.226,0.122,0.078,north,7.9,No
2021/06/29,15:30,0.157,0.145,0.231,0.223,0.228,0.122,0.077,north-northeast,7.8,No
2021/06/29,15:40,0.155,0.147,0.231,0.225,0.228,0.123,0.078,north,7.9,No
2021/06/29,15:50,0.156,0.146,0.231,0.224,0.226,0.122,0.078,north,7.6,No
2021/06/29,16:00,0.157,0.145,0.232,0.224,0.228,0.124,0.078,north,7.0,No
2021/06/29,16:10,0.157,0.146,0.230,0.225,0.228,0.123,0.078,north,8.1,No
2021/06/29,16:20,0.158,0.146,0.232,0.223,0.225,0.123,0.079,north,9.2,No
2021/06/29,16:30,0.156,0.146,0.231,0.226,0.228,0.123,0.078,north,9.5,Yes
2021/06/29,16:40,0.157,0.146,0.232,0.226,0.228,0.122,0.079,north,8.7,Yes
2021/06/29,16:50,0.157,0.146,0.232,0.224,0.227,0.123,0.078,north,8.5,Yes
2021/06/29,17:00,0.158,0.147,0.232,0.225,0.229,0.123,0.078,north,7.3,No
2021/06/29,17:10,0.159,0.147,0.232,0.224,0.227,0.123,0.079,north,7.9,Yes
2021/06/29,17:20,0.158,0.146,0.232,0.226,0.229,0.124,0.078,north,7.8,No
2021/06/29,17:30,0.158,0.147,0.234,0.223,0.227,0.124,0.078,north,8.1,No
2021/06/29,17:40,0.158,0.148,0.231,0.226,0.228,0.125,0.078,north,8.6,Yes
2021/06/29,17:50,0.159,0.147,0.233,0.226,0.229,0.124,0.078,north,6.7,No
2021/06/29,18:00,0.159,0.148,0.232,0.226,0.229,0.123,0.078,north,6.6,No
2021/06/29,18:10,0.158,0.148,0.233,0.226,0.230,0.124,0.078,north,6.9,No
2021/06/29,18:20,0.159,0.147,0.232,0.225,0.227,0.123,0.078,north,7.6,No
2021/06/29,18:30,0.158,0.146,0.235,0.227,0.230,0.124,0.079,north-northwest,7.7,No
2021/06/29,18:40,0.158,0.148,0.230,0.225,0.226,0.124,0.078,north-northwest,7.1,No
2021/06/29,18:50,0.157,0.147,0.235,0.227,0.230,0.124,0.079,north-northwest,7.4,No
2021/06/29,19:00,0.159,0.147,0.232,0.223,0.228,0.124,0.078,north-northwest,7.7,No
2021/06/29,19:10,0.159,0.146,0.234,0.226,0.228,0.124,0.078,north-northwest,6.8,No
2021/06/29,19:20,0.159,0.147,0.232,0.224,0.227,0.124,0.079,northwest,6.5,No
2021/06/29,19:30,0.160,0.147,0.233,0.227,0.228,0.124,0.078,north-northwest,7.7,No
2021/06/29,19:40,0.157,0.146,0.231,0.225,0.228,0.124,0.078,northwest,8.1,No
2021/06/29,19:50,0.159,0.147,0.233,0.225,0.226,0.124,0.078,northwest,7.3,No
2021/06/29,20:00,0.157,0.147,0.231,0.226,0.229,0.124,0.079,north-northwest,6.8,No
2021/06/29,20:10,0.158,0.147,0.233,0.225,0.226,0.125,0.079,northwest,6.4,No
2021/06/29,20:20,0.158,0.147,0.232,0.225,0.230,0.123,0.078,north-northwest,7.0,No
2021/06/29,20:30,0.159,0.148,0.232,0.224,0.227,0.124,0.078,north-northwest,6.5,No
2021/06/29,20:40,0.160,0.146,0.233,0.226,0.228,0.123,0.078,northwest,6.1,No
2021/06/29,20:50,0.158,0.147,0.231,0.224,0.227,0.123,0.078,northwest,6.0,No
2021/06/29,21:00,0.159,0.147,0.232,0.226,0.229,0.124,0.078,north-northwest,6.5,No
2021/06/29,21:10,0.158,0.147,0.232,0.224,0.229,0.124,0.078,northwest,6.8,No
2021/06/29,21:20,0.160,0.147,0.234,0.225,0.227,0.124,0.078,north-northwest,7.5,No
2021/06/29,21:30,0.158,0.147,0.231,0.225,0.229,0.124,0.079,north-northwest,7.3,No
2021/06/29,21:40,0.159,0.147,0.234,0.225,0.227,0.123,0.079,northwest,7.0,No
2021/06/29,21:50,0.159,0.145,0.232,0.225,0.229,0.124,0.078,north-northwest,7.3,No
2021/06/29,22:00,0.158,0.147,0.234,0.225,0.227,0.124,0.078,north-northwest,7.7,No
2021/06/29,22:10,0.159,0.146,0.233,0.225,0.228,0.125,0.078,northwest,7.0,No
2021/06/29,22:20,0.159,0.148,0.234,0.225,0.228,0.124,0.079,north-northwest,7.5,No
2021/06/29,22:30,0.160,0.147,0.232,0.226,0.228,0.124,0.078,north-northwest,6.8,No
2021/06/29,22:40,0.158,0.147,0.233,0.224,0.230,0.125,0.079,north-northwest,5.9,No
2021/06/29,22:50,0.160,0.148,0.232,0.226,0.227,0.124,0.078,northwest,6.1,No
2021/06/29,23:00,0.159,0.147,0.233,0.225,0.230,0.124,0.079,north-northwest,6.9,No
2021/06/29,23:10,0.159,0.147,0.233,0.226,0.227,0.124,0.078,north-northwest,6.5,No
2021/06/29,23:20,0.160,0.148,0.233,0.224,0.230,0.125,0.079,north-northwest,7.3,No
2021/06/29,23:30,0.158,0.148,0.233,0.225,0.228,0.124,0.079,north-northwest,7.1,No
2021/06/29,23:40,0.160,0.147,0.233,0.226,0.227,0.124,0.079,north-northwest,7.4,No
2021/06/29,23:50,0.159,0.148,0.233,0.226,0.228,0.125,0.079,north-northwest,7.6,No
